| time (UTC) | temp F | wind direction | speed MPH | gust MPH | rain 1hr in | rain 24hr in | rain mn in | humidity % | barometer mb |
| 20260906031221 | 76 | 17 | 3.0 | 7.0 | 0.00 | 0.02 | 0.41 | 87 | 1013.4 |
| 20260906030721 | 76 | 10 | 5.0 | 7.0 | 0.00 | 0.02 | 0.41 | 87 | 1013.5 |
| 20260906030220 | 76 | 30 | 2.0 | 4.0 | 0.00 | 0.02 | 0.41 | 87 | 1013.7 |
| 20260906025720 | 76 | 4 | 0.0 | 3.0 | 0.00 | 0.02 | 0.41 | 87 | 1013.6 |
| 20260906025219 | 76 | 13 | 3.0 | 5.0 | 0.00 | 0.02 | 0.41 | 87 | 1013.6 |
| 20260906024718 | 76 | 18 | 1.0 | 5.0 | 0.00 | 0.02 | 0.41 | 87 | 1013.7 |
| 20260906024218 | 76 | 10 | 2.0 | 4.0 | 0.00 | 0.02 | 0.41 | 87 | 1013.7 |
| 20260906023717 | 76 | 25 | 3.0 | 5.0 | 0.00 | 0.02 | 0.41 | 87 | 1013.7 |
| 20260906023217 | 76 | 4 | 0.0 | 3.0 | 0.00 | 0.02 | 0.41 | 87 | 1013.8 |
| 20260906022715 | 77 | 27 | 1.0 | 2.0 | 0.00 | 0.02 | 0.41 | 87 | 1013.8 |
| 20260906022215 | 77 | 11 | 1.0 | 4.0 | 0.00 | 0.02 | 0.41 | 88 | 1013.7 |
| 20260906021715 | 77 | 39 | 0.0 | 0.0 | 0.00 | 0.02 | 0.41 | 87 | 1013.7 |
| 20260906021214 | 77 | 39 | 0.0 | 0.0 | 0.00 | 0.02 | 0.41 | 87 | 1013.7 |
| 20260906020713 | 77 | 39 | 0.0 | 0.0 | 0.00 | 0.02 | 0.41 | 87 | 1013.5 |
| 20260906020213 | 77 | 39 | 0.0 | 0.0 | 0.00 | 0.02 | 0.41 | 87 | 1013.6 |
| 20260906015712 | 77 | 39 | 0.0 | 0.0 | 0.00 | 0.02 | 0.41 | 87 | 1013.6 |
| 20260906015212 | 77 | 39 | 0.0 | 0.0 | 0.00 | 0.02 | 0.41 | 87 | 1013.6 |
| 20260906014711 | 77 | 39 | 0.0 | 1.0 | 0.08 | 0.02 | 0.41 | 87 | 1013.6 |
| 20260906014211 | 78 | 39 | 1.0 | 2.0 | 0.08 | 0.02 | 0.41 | 87 | 1013.6 |
| 20260906013710 | 78 | 42 | 0.0 | 4.0 | 0.08 | 0.02 | 0.41 | 87 | 1013.4 |
| 20260906013210 | 78 | 352 | 0.0 | 4.0 | 0.08 | 0.02 | 0.41 | 88 | 1013.4 |
| 20260906012709 | 78 | 51 | 1.0 | 2.0 | 0.08 | 0.02 | 0.41 | 88 | 1013.3 |
| 20260906012209 | 78 | 11 | 0.0 | 0.0 | 0.08 | 0.02 | 0.41 | 88 | 1013.3 |
| 20260906011708 | 78 | 11 | 0.0 | 2.0 | 0.08 | 0.02 | 0.41 | 88 | 1013.3 |
| 20260906011208 | 78 | 352 | 1.0 | 5.0 | 0.08 | 0.02 | 0.41 | 88 | 1013.2 |
| 20260906010707 | 78 | 10 | 3.0 | 5.0 | 0.08 | 0.02 | 0.41 | 89 | 1013.0 |
| 20260906010206 | 79 | 13 | 0.0 | 3.0 | 0.08 | 0.02 | 0.41 | 88 | 1012.9 |
| 20260906005706 | 79 | 338 | 0.0 | 0.0 | 0.08 | 0.02 | 0.41 | 89 | 1013.0 |
| 20260906005205 | 79 | 352 | 0.0 | 3.0 | 0.00 | 0.02 | 0.41 | 87 | 1013.0 |
| 20260906004705 | 79 | 352 | 1.0 | 4.0 | 0.00 | 0.02 | 0.41 | 86 | 1012.8 |
| 20260906004204 | 79 | 44 | 2.0 | 6.0 | 0.00 | 0.02 | 0.41 | 84 | 1012.7 |
| 20260906003704 | 80 | 101 | 1.0 | 7.0 | 0.00 | 0.02 | 0.41 | 82 | 1012.6 |
| 20260906003203 | 80 | 328 | 5.0 | 3.0 | 0.00 | 0.02 | 0.33 | 81 | 1012.8 |
| 20260906002703 | 80 | 333 | 1.0 | 4.0 | 0.00 | 0.02 | 0.33 | 81 | 1012.6 |
| 20260906002202 | 80 | 34 | 3.0 | 5.0 | 0.00 | 0.02 | 0.33 | 81 | 1012.4 |
| 20260906001702 | 80 | 17 | 3.0 | 6.0 | 0.00 | 0.02 | 0.33 | 81 | 1012.5 |
| 20260906001201 | 80 | 28 | 3.0 | 5.0 | 0.00 | 0.02 | 0.33 | 81 | 1012.2 |
| 20260906000701 | 80 | 338 | 4.0 | 8.0 | 0.00 | 0.02 | 0.33 | 80 | 1012.2 |
| 20260906000200 | 80 | 41 | 4.0 | 7.0 | 0.00 | 0.02 | 0.33 | 80 | 1012.4 |
| 20260905235700 | 80 | 6 | 4.0 | 4.0 | 0.00 | 0.02 | 0.33 | 79 | 1012.5 |
| 20260905235159 | 80 | 11 | 3.0 | 4.0 | 0.00 | 0.02 | 0.33 | 77 | 1012.4 |
| 20260905234659 | 81 | 27 | 2.0 | 3.0 | 0.00 | 0.02 | 0.33 | 76 | 1012.3 |
| 20260905234158 | 81 | 353 | 0.0 | 6.0 | 0.00 | 0.02 | 0.33 | 76 | 1012.3 |
| 20260905233658 | 81 | 27 | 2.0 | 5.0 | 0.00 | 0.02 | 0.33 | 76 | 1012.4 |
| 20260905233157 | 81 | 48 | 3.0 | 5.0 | 0.00 | 0.02 | 0.33 | 75 | 1012.3 |
| 20260905232656 | 81 | 330 | 3.0 | 10.0 | 0.00 | 0.02 | 0.33 | 74 | 1012.5 |
| 20260905232156 | 82 | 31 | 6.0 | 10.0 | 0.00 | 0.02 | 0.33 | 73 | 1012.4 |
| 20260905231655 | 83 | 339 | 7.0 | 6.0 | 0.00 | 0.02 | 0.33 | 70 | 1012.7 |
| 20260905231155 | 83 | 295 | 3.0 | 5.0 | 0.00 | 0.02 | 0.33 | 67 | 1012.6 |
| 20260905230654 | 83 | 23 | 2.0 | 5.0 | 0.00 | 0.02 | 0.33 | 67 | 1012.4 |
| 20260905230154 | 83 | 59 | 2.0 | 4.0 | 0.00 | 0.02 | 0.33 | 67 | 1012.1 |
| 20260905225653 | 83 | 335 | 1.0 | 5.0 | 0.00 | 0.02 | 0.33 | 67 | 1012.0 |
| 20260905224652 | 83 | 86 | 3.0 | 7.0 | 0.00 | 0.02 | 0.33 | 67 | 1012.2 |
| 20260905224151 | 83 | 90 | 4.0 | 8.0 | 0.00 | 0.02 | 0.33 | 66 | 1011.8 |
| 20260905223650 | 83 | 83 | 5.0 | 10.0 | 0.00 | 0.02 | 0.33 | 66 | 1011.9 |
| 20260905223150 | 83 | 62 | 5.0 | 7.0 | 0.00 | 0.02 | 0.33 | 66 | 1012.0 |
| 20260905222649 | 83 | 62 | 5.0 | 8.0 | 0.00 | 0.02 | 0.33 | 66 | 1011.9 |
| 20260905222149 | 83 | 10 | 3.0 | 10.0 | 0.00 | 0.02 | 0.33 | 65 | 1012.0 |
| 20260905221648 | 83 | 44 | 6.0 | 9.0 | 0.00 | 0.02 | 0.33 | 66 | 1011.9 |
| 20260905220647 | 85 | 11 | 6.0 | 11.0 | 0.00 | 0.02 | 0.33 | 62 | 1011.7 |
| 20260905220147 | 87 | 32 | 5.0 | 5.0 | 0.00 | 0.02 | 0.33 | 57 | 1011.9 |
| 20260905215646 | 88 | 72 | 2.0 | 6.0 | 0.00 | 0.02 | 0.33 | 55 | 1011.6 |
| 20260905215145 | 88 | 262 | 3.0 | 8.0 | 0.00 | 0.02 | 0.33 | 55 | 1011.4 |
| 20260905214645 | 88 | 330 | 6.0 | 9.0 | 0.00 | 0.02 | 0.33 | 55 | 1011.5 |
| 20260905214145 | 88 | 288 | 4.0 | 5.0 | 0.00 | 0.02 | 0.33 | 54 | 1011.5 |
| 20260905213644 | 88 | 264 | 1.0 | 5.0 | 0.00 | 0.02 | 0.33 | 54 | 1011.5 |
| 20260905213143 | 88 | 342 | 2.0 | 8.0 | 0.00 | 0.02 | 0.33 | 55 | 1011.6 |
| 20260905212643 | 88 | 297 | 3.0 | 8.0 | 0.00 | 0.02 | 0.33 | 55 | 1011.5 |
| 20260905212142 | 88 | 318 | 5.0 | 8.0 | 0.00 | 0.02 | 0.33 | 55 | 1011.6 |
| 20260905211642 | 88 | 314 | 4.0 | 4.0 | 0.00 | 0.02 | 0.33 | 53 | 1011.8 |
| 20260905210641 | 88 | 238 | 2.0 | 9.0 | 0.00 | 0.02 | 0.33 | 54 | 1011.8 |
| 20260905210140 | 88 | 266 | 6.0 | 9.0 | 0.00 | 0.02 | 0.33 | 54 | 1011.9 |
| 20260905205640 | 88 | 315 | 4.0 | 9.0 | 0.00 | 0.02 | 0.33 | 55 | 1012.0 |
| 20260905205139 | 88 | 284 | 6.0 | 9.0 | 0.00 | 0.02 | 0.33 | 53 | 1012.1 |
| 20260905204138 | 88 | 338 | 4.0 | 7.0 | 0.00 | 0.02 | 0.33 | 52 | 1012.2 |
| 20260905203638 | 88 | 201 | 1.0 | 7.0 | 0.00 | 0.02 | 0.33 | 53 | 1012.2 |
| 20260905203136 | 87 | 332 | 4.0 | 8.0 | 0.00 | 0.02 | 0.33 | 54 | 1012.1 |
| 20260905202135 | 87 | 325 | 4.0 | 8.0 | 0.00 | 0.02 | 0.33 | 55 | 1012.2 |
| 20260905201634 | 87 | 281 | 4.0 | 6.0 | 0.00 | 0.02 | 0.33 | 54 | 1012.3 |
| 20260905201134 | 87 | 305 | 3.0 | 7.0 | 0.00 | 0.02 | 0.33 | 54 | 1012.4 |
| 20260905200132 | 87 | 356 | 3.0 | 8.0 | 0.00 | 0.02 | 0.33 | 54 | 1012.6 |
| 20260905195631 | 87 | 314 | 2.0 | 6.0 | 0.00 | 0.02 | 0.33 | 55 | 1012.6 |
| 20260905195131 | 87 | 304 | 2.0 | 8.0 | 0.00 | 0.02 | 0.33 | 54 | 1012.7 |
| 20260905194627 | 86 | 274 | 6.0 | 8.0 | 0.00 | 0.02 | 0.33 | 54 | 1012.8 |
| 20260905194127 | 86 | 323 | 6.0 | 6.0 | 0.00 | 0.02 | 0.33 | 56 | 1012.9 |
| 20260905193626 | 87 | 359 | 2.0 | 4.0 | 0.00 | 0.02 | 0.33 | 55 | 1012.9 |
| 20260905193126 | 87 | 32 | 1.0 | 6.0 | 0.00 | 0.02 | 0.33 | 53 | 1012.9 |
| 20260905192625 | 87 | 330 | 4.0 | 7.0 | 0.00 | 0.02 | 0.33 | 55 | 1013.0 |
| 20260905192125 | 86 | 357 | 3.0 | 5.0 | 0.00 | 0.02 | 0.33 | 55 | 1013.0 |
| 20260905191624 | 86 | 31 | 2.0 | 5.0 | 0.00 | 0.02 | 0.33 | 55 | 1013.1 |
| 20260905191124 | 86 | 15 | 1.0 | 7.0 | 0.00 | 0.02 | 0.33 | 56 | 1013.2 |
| 20260905190623 | 85 | 356 | 5.0 | 4.0 | 0.00 | 0.02 | 0.33 | 56 | 1013.3 |
| 20260905190123 | 85 | 82 | 0.0 | 5.0 | 0.00 | 0.02 | 0.33 | 56 | 1013.4 |
| 20260905185622 | 85 | 269 | 4.0 | 2.0 | 0.00 | 0.02 | 0.33 | 56 | 1013.6 |
| 20260905185122 | 85 | 66 | 1.0 | 6.0 | 0.00 | 0.02 | 0.33 | 56 | 1013.6 |
| 20260905184621 | 84 | 271 | 2.0 | 9.0 | 0.00 | 0.02 | 0.33 | 57 | 1013.6 |
| 20260905184121 | 85 | 328 | 4.0 | 6.0 | 0.00 | 0.02 | 0.33 | 57 | 1013.6 |
| 20260905183620 | 84 | 340 | 4.0 | 9.0 | 0.00 | 0.02 | 0.33 | 57 | 1013.6 |
| 20260905183119 | 84 | 329 | 6.0 | 7.0 | 0.00 | 0.02 | 0.33 | 57 | 1013.8 |
| 20260905182619 | 84 | 330 | 2.0 | 10.0 | 0.00 | 0.02 | 0.33 | 57 | 1013.8 |
| 20260905182118 | 83 | 316 | 6.0 | 9.0 | 0.00 | 0.02 | 0.33 | 57 | 1013.8 |
| 20260905181618 | 83 | 301 | 6.0 | 7.0 | 0.00 | 0.02 | 0.33 | 58 | 1013.8 |
| 20260905181117 | 83 | 305 | 4.0 | 8.0 | 0.00 | 0.02 | 0.33 | 58 | 1014.0 |
| 20260905180617 | 83 | 325 | 4.0 | 9.0 | 0.00 | 0.02 | 0.33 | 60 | 1014.0 |
| 20260905180116 | 83 | 314 | 4.0 | 8.0 | 0.00 | 0.02 | 0.33 | 59 | 1014.1 |
| 20260905175616 | 83 | 359 | 4.0 | 9.0 | 0.00 | 0.02 | 0.33 | 59 | 1014.0 |
| 20260905175115 | 83 | 356 | 6.0 | 5.0 | 0.00 | 0.02 | 0.33 | 58 | 1013.8 |
| 20260905174615 | 83 | 20 | 2.0 | 8.0 | 0.00 | 0.02 | 0.33 | 57 | 1013.8 |
| 20260905174114 | 83 | 312 | 5.0 | 10.0 | 0.00 | 0.02 | 0.33 | 58 | 1014.0 |
| 20260905173614 | 84 | 349 | 6.0 | 8.0 | 0.00 | 0.02 | 0.33 | 57 | 1014.1 |
| 20260905173113 | 84 | 274 | 5.0 | 6.0 | 0.00 | 0.02 | 0.33 | 55 | 1013.7 |
| 20260905172613 | 84 | 153 | 3.0 | 6.0 | 0.00 | 0.02 | 0.33 | 55 | 1013.5 |
| 20260905172112 | 84 | 239 | 5.0 | 6.0 | 0.00 | 0.02 | 0.33 | 55 | 1013.5 |
| 20260905171612 | 84 | 217 | 0.0 | 9.0 | 0.00 | 0.02 | 0.33 | 57 | 1013.3 |
| 20260905171111 | 83 | 250 | 6.0 | 10.0 | 0.00 | 0.02 | 0.33 | 57 | 1013.5 |
| 20260905170611 | 83 | 224 | 7.0 | 10.0 | 0.00 | 0.02 | 0.33 | 56 | 1013.5 |
| 20260905170110 | 83 | 257 | 5.0 | 9.0 | 0.00 | 0.02 | 0.33 | 56 | 1013.7 |
| 20260905165610 | 83 | 243 | 8.0 | 8.0 | 0.00 | 0.02 | 0.33 | 55 | 1013.8 |
| 20260905165109 | 83 | 229 | 6.0 | 8.0 | 0.00 | 0.02 | 0.33 | 55 | 1014.0 |
| 20260905164608 | 83 | 248 | 4.0 | 10.0 | 0.00 | 0.02 | 0.33 | 56 | 1014.1 |
| 20260905164108 | 83 | 277 | 8.0 | 10.0 | 0.00 | 0.02 | 0.33 | 57 | 1014.1 |
| 20260905163607 | 82 | 229 | 5.0 | 11.0 | 0.00 | 0.02 | 0.33 | 57 | 1014.0 |
| 20260905163107 | 82 | 229 | 8.0 | 10.0 | 0.00 | 0.02 | 0.33 | 57 | 1014.1 |
| 20260905162606 | 82 | 214 | 8.0 | 10.0 | 0.00 | 0.02 | 0.33 | 55 | 1014.1 |
| 20260905161604 | 82 | 277 | 4.0 | 7.0 | 0.00 | 0.02 | 0.33 | 57 | 1014.2 |
| 20260905161104 | 82 | 248 | 2.0 | 7.0 | 0.00 | 0.02 | 0.33 | 57 | 1014.2 |
| 20260905160603 | 81 | 174 | 5.0 | 7.0 | 0.00 | 0.02 | 0.33 | 57 | 1014.2 |
| 20260905155601 | 80 | 84 | 1.0 | 6.0 | 0.00 | 0.02 | 0.33 | 60 | 1014.2 |
| 20260905155101 | 80 | 235 | 2.0 | 7.0 | 0.00 | 0.02 | 0.33 | 60 | 1014.2 |
| 20260905154600 | 80 | 262 | 4.0 | 7.0 | 0.00 | 0.02 | 0.33 | 60 | 1014.3 |
| 20260905154100 | 80 | 236 | 3.0 | 8.0 | 0.00 | 0.02 | 0.33 | 60 | 1014.3 |
| 20260905153559 | 79 | 215 | 0.0 | 9.0 | 0.00 | 0.02 | 0.33 | 60 | 1014.3 |
| 20260905153059 | 79 | 242 | 5.0 | 9.0 | 0.00 | 0.02 | 0.33 | 61 | 1014.2 |
| 20260905152057 | 78 | 221 | 5.0 | 12.0 | 0.00 | 0.02 | 0.33 | 62 | 1014.1 |
| 20260905151556 | 78 | 280 | 5.0 | 8.0 | 0.00 | 0.02 | 0.33 | 64 | 1014.1 |
| 20260905150554 | 77 | 259 | 6.0 | 11.0 | 0.00 | 0.02 | 0.33 | 62 | 1014.0 |
| 20260905150053 | 77 | 214 | 7.0 | 14.0 | 0.00 | 0.02 | 0.33 | 64 | 1013.8 |
| 20260905145053 | 77 | 210 | 7.0 | 14.0 | 0.00 | 0.02 | 0.33 | 66 | 1013.8 |
| 20260905144051 | 76 | 204 | 6.0 | 10.0 | 0.00 | 0.02 | 0.33 | 68 | 1013.7 |
| 20260905143551 | 76 | 215 | 6.0 | 12.0 | 0.00 | 0.02 | 0.33 | 70 | 1013.7 |
| 20260905143050 | 76 | 207 | 5.0 | 9.0 | 0.00 | 0.02 | 0.33 | 70 | 1013.7 |
| 20260905142049 | 75 | 172 | 6.0 | 15.0 | 0.00 | 0.02 | 0.33 | 72 | 1013.8 |
| 20260905141549 | 74 | 243 | 6.0 | 12.0 | 0.00 | 0.02 | 0.33 | 73 | 1014.0 |
| 20260905141048 | 74 | 221 | 7.0 | 12.0 | 0.00 | 0.02 | 0.33 | 73 | 1014.1 |
| 20260905140548 | 74 | 211 | 6.0 | 11.0 | 0.00 | 0.02 | 0.33 | 75 | 1014.4 |
| 20260905140047 | 73 | 203 | 7.0 | 11.0 | 0.00 | 0.02 | 0.33 | 77 | 1014.3 |
| 20260905135046 | 73 | 193 | 7.0 | 7.0 | 0.00 | 0.02 | 0.33 | 77 | 1014.6 |
| 20260905134546 | 73 | 201 | 5.0 | 7.0 | 0.00 | 0.02 | 0.33 | 80 | 1014.5 |
| 20260905134045 | 72 | 191 | 4.0 | 3.0 | 0.00 | 0.02 | 0.33 | 83 | 1014.5 |
| 20260905133044 | 71 | 198 | 2.0 | 3.0 | 0.00 | 0.02 | 0.33 | 87 | 1014.4 |
| 20260905132543 | 70 | 174 | 0.0 | 0.0 | 0.00 | 0.02 | 0.33 | 88 | 1014.7 |
| 20260905132043 | 70 | 174 | 0.0 | 0.0 | 0.00 | 0.02 | 0.33 | 89 | 1015.0 |
| 20260905131543 | 70 | 174 | 0.0 | 0.0 | 0.00 | 0.02 | 0.33 | 90 | 1015.1 |
| 20260905131042 | 70 | 174 | 0.0 | 0.0 | 0.00 | 0.02 | 0.33 | 90 | 1015.1 |
| 20260905130541 | 70 | 174 | 0.0 | 0.0 | 0.00 | 0.02 | 0.33 | 90 | 1015.4 |
| 20260905125540 | 70 | 174 | 0.0 | 2.0 | 0.00 | 0.02 | 0.33 | 90 | 1015.2 |
| 20260905125040 | 70 | 174 | 0.0 | 3.0 | 0.00 | 0.02 | 0.33 | 90 | 1015.2 |
| 20260905124539 | 70 | 174 | 1.0 | 0.0 | 0.00 | 0.02 | 0.33 | 90 | 1015.3 |
| 20260905124039 | 70 | 11 | 0.0 | 0.0 | 0.00 | 0.02 | 0.33 | 90 | 1015.5 |
| 20260905123538 | 69 | 11 | 0.0 | 0.0 | 0.00 | 0.02 | 0.33 | 90 | 1015.4 |
| 20260905123038 | 69 | 11 | 0.0 | 0.0 | 0.00 | 0.02 | 0.33 | 90 | 1015.5 |
| 20260905122537 | 69 | 11 | 0.0 | 0.0 | 0.00 | 0.02 | 0.33 | 90 | 1015.4 |
| 20260905122037 | 69 | 11 | 0.0 | 0.0 | 0.00 | 0.02 | 0.33 | 89 | 1015.4 |
| 20260905121535 | 70 | 11 | 0.0 | 0.0 | 0.00 | 0.02 | 0.33 | 89 | 1015.4 |
| 20260905121035 | 69 | 11 | 0.0 | 0.0 | 0.00 | 0.02 | 0.33 | 89 | 1015.6 |
| 20260905120534 | 69 | 11 | 0.0 | 0.0 | 0.00 | 0.02 | 0.33 | 88 | 1015.7 |
| 20260905115533 | 69 | 11 | 0.0 | 0.0 | 0.00 | 0.02 | 0.33 | 88 | 1015.4 |
| 20260905115033 | 69 | 11 | 0.0 | 0.0 | 0.32 | 0.02 | 0.33 | 88 | 1015.3 |
| 20260905114532 | 69 | 11 | 0.0 | 4.0 | 0.32 | 0.02 | 0.33 | 89 | 1015.2 |
| 20260905114031 | 69 | 68 | 1.0 | 6.0 | 0.32 | 0.02 | 0.33 | 89 | 1015.5 |
| 20260905113531 | 69 | 354 | 0.0 | 7.0 | 0.32 | 0.02 | 0.33 | 89 | 1015.3 |
| 20260905113030 | 69 | 17 | 2.0 | 5.0 | 0.32 | 0.02 | 0.33 | 89 | 1015.5 |
| 20260905112028 | 69 | 32 | 2.0 | 6.0 | 0.32 | 0.02 | 0.33 | 90 | 1015.7 |
| 20260905111528 | 69 | 352 | 3.0 | 9.0 | 0.32 | 0.02 | 0.33 | 90 | 1015.6 |
| 20260905111027 | 68 | 359 | 5.0 | 10.0 | 0.32 | 0.02 | 0.33 | 90 | 1015.5 |
| 20260905110527 | 68 | 359 | 2.0 | 9.0 | 0.32 | 0.02 | 0.33 | 90 | 1015.5 |
| 20260905105526 | 68 | 4 | 2.0 | 10.0 | 0.32 | 0.02 | 0.33 | 91 | 1015.4 |
| 20260905105025 | 68 | 39 | 5.0 | 13.0 | 0.01 | 0.02 | 0.33 | 91 | 1015.3 |
| 20260905104525 | 68 | 8 | 6.0 | 13.0 | 0.01 | 0.02 | 0.33 | 91 | 1015.3 |
| 20260905104024 | 68 | 30 | 6.0 | 10.0 | 0.01 | 0.02 | 0.32 | 91 | 1015.7 |
| 20260905103524 | 68 | 27 | 6.0 | 14.0 | 0.01 | 0.02 | 0.32 | 91 | 1015.9 |
| 20260905103023 | 68 | 31 | 6.0 | 12.0 | 0.01 | 0.02 | 0.32 | 91 | 1016.0 |
| 20260905102523 | 68 | 4 | 4.0 | 13.0 | 0.01 | 0.02 | 0.31 | 91 | 1016.1 |
| 20260905102022 | 68 | 4 | 7.0 | 21.0 | 0.01 | 0.02 | 0.31 | 91 | 1016.2 |
| 20260905101522 | 68 | 20 | 7.0 | 14.0 | 0.01 | 0.02 | 0.30 | 91 | 1016.2 |
| 20260905101021 | 68 | 68 | 7.0 | 15.0 | 0.01 | 0.02 | 0.23 | 90 | 1016.5 |
| 20260905100521 | 69 | 30 | 8.0 | 16.0 | 0.01 | 0.02 | 0.20 | 88 | 1016.7 |
| 20260905095519 | 71 | 38 | 12.0 | 24.0 | 0.01 | 0.02 | 0.05 | 81 | 1016.7 |
| 20260905095019 | 72 | 323 | 14.0 | 35.0 | 0.00 | 0.02 | 0.00 | 78 | 1016.0 |
| 20260905094518 | 73 | 326 | 23.0 | 34.0 | 0.00 | 0.02 | 0.00 | 72 | 1015.5 |
| 20260905094018 | 74 | 336 | 19.0 | 24.0 | 0.00 | 0.02 | 0.00 | 75 | 1015.6 |
| 20260905093517 | 74 | 10 | 9.0 | 28.0 | 0.00 | 0.02 | 0.00 | 81 | 1015.2 |
| 20260905093017 | 74 | 301 | 10.0 | 2.0 | 0.00 | 0.02 | 0.00 | 85 | 1014.2 |
| 20260905092516 | 75 | 330 | 0.0 | 0.0 | 0.00 | 0.02 | 0.00 | 85 | 1013.6 |
| 20260905092016 | 75 | 20 | 0.0 | 0.0 | 0.00 | 0.02 | 0.00 | 85 | 1013.7 |
| 20260905091515 | 75 | 20 | 0.0 | 0.0 | 0.00 | 0.02 | 0.00 | 86 | 1013.7 |
| 20260905091013 | 74 | 20 | 0.0 | 0.0 | 0.00 | 0.02 | 0.00 | 85 | 1013.7 |
| 20260905090012 | 74 | 20 | 0.0 | 0.0 | 0.00 | 0.02 | 0.00 | 85 | 1013.6 |
| 20260905085511 | 74 | 20 | 0.0 | 0.0 | 0.00 | 0.02 | 0.00 | 85 | 1013.4 |
| 20260905085011 | 74 | 20 | 0.0 | 0.0 | 0.00 | 0.02 | 0.00 | 85 | 1013.3 |
| 20260905084510 | 74 | 20 | 0.0 | 0.0 | 0.00 | 0.02 | 0.00 | 85 | 1013.3 |
| 20260905084010 | 74 | 20 | 0.0 | 0.0 | 0.00 | 0.02 | 0.00 | 84 | 1013.4 |
| 20260905083509 | 74 | 20 | 0.0 | 0.0 | 0.00 | 0.02 | 0.00 | 84 | 1013.3 |
| 20260905083009 | 74 | 20 | 0.0 | 0.0 | 0.00 | 0.02 | 0.00 | 85 | 1013.5 |
| 20260905082508 | 74 | 20 | 0.0 | 0.0 | 0.00 | 0.02 | 0.00 | 85 | 1013.6 |
| 20260905082008 | 74 | 20 | 0.0 | 0.0 | 0.00 | 0.02 | 0.00 | 85 | 1013.7 |
| 20260905081507 | 74 | 20 | 0.0 | 0.0 | 0.00 | 0.02 | 0.00 | 85 | 1013.7 |
| 20260905081006 | 74 | 20 | 0.0 | 0.0 | 0.00 | 0.02 | 0.00 | 85 | 1013.7 |
| 20260905080506 | 74 | 20 | 0.0 | 0.0 | 0.00 | 0.02 | 0.00 | 85 | 1013.7 |
| 20260905080005 | 74 | 20 | 0.0 | 0.0 | 0.00 | 0.02 | 0.00 | 86 | 1013.8 |
| 20260905075505 | 74 | 20 | 0.0 | 0.0 | 0.00 | 0.02 | 0.00 | 86 | 1013.7 |
| 20260905075005 | 74 | 20 | 0.0 | 2.0 | 0.00 | 0.02 | 0.00 | 86 | 1013.7 |
| 20260905074504 | 74 | 28 | 2.0 | 4.0 | 0.00 | 0.02 | 0.00 | 86 | 1013.5 |
| 20260905074003 | 74 | 121 | 1.0 | 3.0 | 0.00 | 0.02 | 0.00 | 86 | 1013.4 |
| 20260905073002 | 74 | 114 | 3.0 | 3.0 | 0.00 | 0.02 | 0.00 | 86 | 1013.2 |
| 20260905072502 | 74 | 114 | 0.0 | 4.0 | 0.00 | 0.02 | 0.00 | 86 | 1013.3 |
| 20260905072001 | 74 | 58 | 2.0 | 4.0 | 0.00 | 0.02 | 0.00 | 86 | 1013.2 |
| 20260905071501 | 74 | 108 | 2.0 | 5.0 | 0.00 | 0.02 | 0.00 | 86 | 1013.1 |
| 20260905071000 | 74 | 90 | 0.0 | 0.0 | 0.00 | 0.02 | 0.00 | 86 | 1013.2 |
| 20260905070500 | 74 | 90 | 0.0 | 1.0 | 0.00 | 0.02 | 0.00 | 86 | 1013.1 |
| 20260905065459 | 74 | 86 | 2.0 | 4.0 | 0.00 | 0.02 | 0.00 | 85 | 1013.2 |
| 20260905064958 | 74 | 134 | 3.0 | 3.0 | 0.00 | 0.02 | 0.00 | 85 | 1013.2 |
| 20260905064457 | 74 | 62 | 0.0 | 3.0 | 0.00 | 0.02 | 0.00 | 85 | 1013.2 |
| 20260905063456 | 74 | 107 | 1.0 | 3.0 | 0.00 | 0.02 | 0.00 | 85 | 1013.5 |
| 20260905063009 | 74 | 115 | 1.0 | 4.0 | 0.00 | 0.02 | 0.00 | 85 | 1013.6 |
| 20260905062956 | 74 | 96 | 0.0 | 2.0 | 0.00 | 0.02 | 0.00 | 85 | 1013.5 |
| 20260905062455 | 74 | 115 | 1.0 | 4.0 | 0.00 | 0.02 | 0.00 | 85 | 1013.6 |
| 20260905061955 | 74 | 84 | 2.0 | 5.0 | 0.00 | 0.02 | 0.00 | 84 | 1013.7 |
| 20260905061454 | 74 | 122 | 2.0 | 2.0 | 0.00 | 0.02 | 0.00 | 84 | 1013.8 |
| 20260905060954 | 75 | 94 | 1.0 | 3.0 | 0.00 | 0.02 | 0.00 | 84 | 1013.8 |
| 20260905060453 | 75 | 91 | 2.0 | 3.0 | 0.00 | 0.02 | 0.00 | 84 | 1014.0 |
| 20260905055953 | 75 | 118 | 2.0 | 3.0 | 0.00 | 0.02 | 0.00 | 83 | 1014.1 |
| 20260905055452 | 75 | 124 | 2.0 | 3.0 | 0.00 | 0.02 | 0.00 | 83 | 1014.1 |
| 20260905054952 | 75 | 98 | 2.0 | 3.0 | 0.00 | 0.02 | 0.00 | 83 | 1014.2 |
| 20260905054451 | 75 | 115 | 1.0 | 4.0 | 0.00 | 0.02 | 0.00 | 83 | 1014.3 |
| 20260905053951 | 75 | 118 | 2.0 | 4.0 | 0.00 | 0.02 | 0.00 | 83 | 1014.4 |
| 20260905053450 | 75 | 115 | 3.0 | 3.0 | 0.00 | 0.02 | 0.00 | 82 | 1014.4 |
| 20260905052950 | 75 | 94 | 0.0 | 1.0 | 0.00 | 0.02 | 0.00 | 83 | 1014.4 |
| 20260905052449 | 75 | 89 | 0.0 | 3.0 | 0.00 | 0.02 | 0.00 | 83 | 1014.5 |
| 20260905051949 | 75 | 86 | 1.0 | 2.0 | 0.00 | 0.02 | 0.00 | 83 | 1014.5 |
| 20260905051448 | 75 | 6 | 0.0 | 0.0 | 0.00 | 0.02 | 0.00 | 83 | 1014.5 |
| 20260905050948 | 75 | 6 | 0.0 | 1.0 | 0.00 | 0.02 | 0.00 | 82 | 1014.6 |
| 20260905050447 | 75 | 6 | 0.0 | 1.0 | 0.00 | 0.02 | 0.00 | 82 | 1014.7 |
| 20260905045946 | 75 | 10 | 0.0 | 0.0 | 0.00 | 0.02 | 0.00 | 82 | 1014.6 |
| 20260905045445 | 75 | 10 | 0.0 | 0.0 | 0.00 | 0.02 | 0.00 | 81 | 1014.6 |
| 20260905044944 | 75 | 10 | 0.0 | 0.0 | 0.00 | 0.00 | 0.02 | 81 | 1014.7 |
| 20260905044444 | 75 | 10 | 0.0 | 0.0 | 0.00 | 0.00 | 0.02 | 81 | 1014.7 |
| 20260905043943 | 75 | 10 | 0.0 | 1.0 | 0.00 | 0.00 | 0.02 | 81 | 1014.8 |
| 20260905043443 | 75 | 10 | 1.0 | 0.0 | 0.00 | 0.00 | 0.02 | 81 | 1014.8 |
| 20260905042942 | 76 | 10 | 0.0 | 1.0 | 0.00 | 0.00 | 0.02 | 81 | 1014.8 |
| 20260905042442 | 76 | 10 | 1.0 | 2.0 | 0.00 | 0.00 | 0.02 | 81 | 1014.8 |
| 20260905041941 | 76 | 35 | 2.0 | 3.0 | 0.00 | 0.00 | 0.02 | 81 | 1014.9 |
| 20260905041441 | 76 | 72 | 0.0 | 0.0 | 0.00 | 0.00 | 0.02 | 81 | 1014.8 |
| 20260905040940 | 76 | 72 | 0.0 | 0.0 | 0.00 | 0.00 | 0.02 | 81 | 1014.8 |
| 20260905040440 | 76 | 72 | 0.0 | 0.0 | 0.00 | 0.00 | 0.02 | 81 | 1015.0 |
| 20260905035939 | 75 | 72 | 0.0 | 0.0 | 0.00 | 0.00 | 0.02 | 81 | 1015.0 |
| 20260905035439 | 75 | 72 | 0.0 | 0.0 | 0.00 | 0.00 | 0.02 | 81 | 1015.0 |
| 20260905034938 | 76 | 72 | 0.0 | 0.0 | 0.00 | 0.00 | 0.02 | 81 | 1015.0 |
| 20260905034438 | 76 | 72 | 0.0 | 0.0 | 0.00 | 0.00 | 0.02 | 81 | 1015.0 |
| 20260905034159 | 76 | 72 | 0.0 | 0.0 | 0.00 | 0.00 | 0.02 | 81 | 1014.9 |
| 20260905033937 | 76 | 72 | 0.0 | 0.0 | 0.00 | 0.00 | 0.02 | 81 | 1014.9 |
| 20260905033437 | 76 | 72 | 0.0 | 0.0 | 0.00 | 0.00 | 0.02 | 80 | 1014.9 |
| 20260905032936 | 76 | 72 | 0.0 | 0.0 | 0.00 | 0.00 | 0.02 | 80 | 1014.8 |
| 20260905032435 | 76 | 72 | 0.0 | 0.0 | 0.00 | 0.00 | 0.02 | 80 | 1014.8 |